RH
20 41 57 74 82 74 73 97 98 35 42 60 24 24 40 53 62 30 52 58 59 39 22 38 32 16 10 9 11 23 23 36 53 67 66 87 64 74 97 97 96 98 98
33 42 51 64 83 82 41 67 80 38 40 73 12 32 51 86 99 94 78 69 56 34 24 42 20 13 14 12 15 18 32 41 54 43 62 64 90 92 97 97 98 98 99
34 36 53 65 80 81 58 64 79 59 16 25 16 34 71 92 97 99 83 65 54 37 36 40 19 17 17 15 16 20 26 40 60 65 25 64 90 95 97 96 98 97 99
44 52 63 70 77 84 84 65 58 43 20 13 24 56 100 98 98 97 99 98 49 37 54 30 18 14 9 13 15 25 31 47 44 20 30 59 87 98 96 96 97 96 99
49 57 66 72 67 78 55 32 47 37 34 24 35 87 88 100 100 99 100 59 56 50 58 21 14 8 10 12 20 29 52 78 72 43 35 59 87 96 97 97 97 98 97
68 75 88 76 69 70 65 26 29 38 55 40 57 63 81 100 99 97 88 76 68 74 37 14 11 8 8 12 26 36 38 59 57 42 30 63 81 97 96 97 96 98 94
78 90 90 99 93 82 76 54 39 28 50 66 76 92 97 89 91 98 79 82 81 74 22 14 11 9 16 19 44 48 81 89 74 64 39 91 92 97 97 97 97 99 88
98 95 99 95 96 73 65 65 45 26 70 69 97 81 95 95 97 93 63 90 93 53 15 17 12 17 19 23 34 57 70 97 92 90 31 94 95 96 97 97 97 97 95
87 89 100 98 88 65 52 62 61 41 77 61 72 98 99 89 92 56 90 96 89 41 16 18 14 20 23 26 30 74 87 97 95 81 66 80 94 97 96 97 97 96 96
96 85 89 97 97 80 34 41 86 94 92 90 95 98 100 93 82 53 76 97 82 36 18 20 17 22 21 25 34 59 98 97 90 89 95 95 97 97 97 97 96 96 97
97 69 96 98 96 98 70 85 85 96 94 99 94 97 96 94 80 65 80 89 75 36 19 20 22 19 20 22 41 67 99 98 99 96 89 99 97 97 96 97 95 96 96
98 78 61 62 91 98 98 92 95 94 96 96 98 98 96 95 90 66 85 94 48 36 24 21 28 24 20 21 29 83 97 97 94 97 94 97 96 96 97 97 96 96 96
100 98 83 70 46 47 98 100 98 99 98 97 98 98 97 94 53 53 82 90 92 39 31 20 30 31 26 24 24 83 98 97 96 98 97 98 97 97 96 97 97 97 98
100 100 98 78 52 36 48 87 98 98 98 96 95 98 98 94 52 64 88 96 97 57 28 22 32 30 28 29 26 28 95 97 97 96 96 97 97 97 97 97 98 99 98
100 100 98 92 70 55 56 47 83 92 96 98 97 96 96 98 62 78 98 93 89 65 37 24 26 26 24 28 27 27 62 97 97 97 96 97 97 97 97 98 98 95 98
100 100 100 98 82 75 68 65 83 89 94 98 98 95 96 96 78 84 93 100 92 74 39 21 23 23 22 25 31 30 18 44 98 96 97 97 97 96 97 97 97 97 98
97 100 100 99 94 75 71 62 55 61 66 87 95 96 99 97 89 85 95 100 95 91 93 67 44 45 40 35 36 42 38 27 23 79 98 98 98 98 98 97 98 98 98
77 75 78 87 98 86 86 78 70 57 44 48 96 62 94 98 96 98 98 97 97 98 96 95 86 68 60 54 48 52 65 62 43 32 26 29 44 32 53 65 72 58 34
62 65 49 50 68 85 78 81 77 70 63 60 57 62 99 93 100 93 88 92 98 99 100 100 98 94 92 71 67 72 82 85 86 90 86 81 63 40 31 26 27 28 27
22 28 44 44 32 49 74 77 72 77 88 77 66 61 96 98 71 72 75 81 97 98 100 100 94 93 90 92 78 71 82 90 94 93 97 99 100 93 87 69 50 44 45
29 28 24 32 36 32 54 67 78 87 98 94 84 67 58 70 96 65 97 100 90 92 92 88 82 80 76 84 86 81 83 83 89 92 90 90 92 91 97 93 90 89 86
43 40 38 34 31 32 33 55 70 77 84 91 100 98 84 75 71 63 56 71 94 94 98 97 98 88 93 93 90 88 85 84 82 83 85 91 95 100 99 100 100 97 97
47 28 31 36 36 28 27 32 53 73 79 85 92 100 98 100 100 97 90 90 97 95 99 99 98 100 99 100 93 90 92 84 80 88 90 86 83 93 95 100 100 98 100
46 42 33 19 26 32 26 22 36 58 74 82 87 84 82 86 97 93 99 98 97 99 92 99 91 98 97 97 99 94 98 99 100 100 98 98 83 99 97 70 90 100 99
25 26 27 28 20 22 25 22 21 38 64 82 94 98 95 87 90 94 98 98 94 92 97 92 73 75 87 99 98 98 99 100 99 99 98 99 99 100 98 99 100 100 100
19 17 19 20 22 24 25 26 27 80 95 98 96 100 100 100 100 95 92 94 98 99 99 99 99 97 99 99 99 99 97 98 98 98 98 98 98 98 99 98 98 99 98
Wind_Speed
51 49 47 49 51 57 62 66 63 54 47 46 42 46 46 32 32 31 33 35 31 31 28 27 30 28 30 30 31 30 28 29 31 28 28 28 30 36 35 36 33 29 28
52 45 47 46 48 49 52 53 46 50 45 44 39 43 39 37 41 36 37 35 33 31 26 29 28 28 27 28 29 29 28 29 31 31 29 29 28 35 37 36 34 33 30
46 46 45 37 45 45 50 49 43 43 46 41 40 44 41 38 39 35 36 29 32 29 27 29 27 28 27 27 27 28 28 31 34 32 31 30 31 29 36 37 38 37 33
44 42 43 37 44 47 41 44 42 40 41 37 43 46 37 34 40 30 28 32 28 29 29 27 27 26 25 23 24 28 28 33 34 32 33 31 35 39 40 40 40 40 35
42 37 37 34 43 38 38 41 44 36 34 37 45 40 41 39 39 33 32 29 28 30 28 26 25 23 23 22 22 22 29 34 35 34 34 31 34 36 41 42 38 38 32
29 28 31 33 41 38 40 37 42 41 40 39 39 40 40 35 37 30 28 26 30 31 26 25 24 22 23 22 21 23 29 34 34 35 35 30 29 32 34 31 36 35 36
25 26 29 31 37 37 37 38 34 34 36 38 41 40 36 38 34 30 28 29 31 29 25 23 22 21 21 19 22 23 25 31 35 35 35 24 25 31 34 37 36 33 35
25 33 32 32 31 37 31 38 35 32 36 40 38 39 38 37 33 30 30 30 31 26 24 22 21 20 17 22 24 25 27 28 32 33 34 35 29 30 35 33 32 29 35
27 21 23 31 34 37 33 35 31 32 37 38 39 36 38 35 33 32 32 32 29 25 25 22 23 23 22 21 23 26 26 28 32 32 35 31 31 27 29 34 30 28 32
15 19 20 29 27 32 31 35 36 40 40 48 40 38 38 39 37 35 34 30 29 27 26 21 23 26 24 22 21 25 22 25 32 32 35 32 30 29 31 32 31 33 32
16 13 14 22 32 26 27 30 33 35 28 32 45 40 42 40 35 37 33 31 29 29 27 22 24 24 22 21 20 26 20 29 32 32 30 30 32 30 30 33 35 32 28
16 14 13 16 20 30 31 31 32 34 35 35 38 40 40 37 37 36 32 31 30 30 26 26 25 23 22 18 18 21 18 24 30 29 28 32 31 32 32 30 30 27 27
13 18 17 17 20 24 28 27 26 27 29 31 39 40 40 38 36 35 34 30 29 29 28 28 26 22 21 15 15 16 14 25 30 29 33 37 35 31 30 31 32 28 26
12 11 19 18 21 24 29 33 28 24 17 23 36 44 43 41 39 37 33 30 30 31 26 28 25 20 19 14 10 14 10 24 27 30 30 33 33 30 28 28 29 29 29
10 12 10 15 19 23 26 30 33 29 25 20 25 37 47 46 41 39 37 33 34 30 24 27 23 21 17 15 11 11 13 11 25 26 28 30 36 34 28 30 30 29 32
9 9 13 13 14 18 21 22 25 24 25 14 14 23 33 41 42 41 40 38 35 29 23 24 21 21 19 17 14 12 12 11 12 16 23 24 28 32 32 35 34 27 26
13 8 10 13 14 16 17 22 26 25 24 22 20 20 22 30 41 42 38 38 36 31 26 24 23 22 22 21 19 16 15 16 15 17 22 20 23 24 29 34 35 34 35
14 14 12 10 13 13 16 19 21 24 28 29 24 21 22 29 28 36 37 35 37 32 30 29 28 27 25 25 25 23 20 20 21 22 23 25 27 27 30 33 35 36 36
12 11 10 12 12 14 14 16 18 24 28 29 30 26 28 27 30 32 35 38 37 37 34 33 32 32 31 31 30 28 25 25 25 26 27 28 30 32 34 35 37 38 39
12 13 13 12 13 13 15 15 16 22 27 30 32 35 32 29 38 35 39 39 39 36 37 36 36 37 38 38 37 35 32 31 32 31 30 31 35 37 38 40 41 42 43
8 11 13 12 13 15 17 19 17 18 25 33 37 37 38 41 35 41 42 36 42 47 42 41 39 44 46 44 43 42 41 40 39 40 41 38 39 42 44 45 45 46 48
12 12 14 17 18 16 18 20 23 20 25 29 35 40 39 40 44 46 46 46 45 39 43 46 45 41 44 46 46 47 47 47 49 48 47 46 45 46 46 46 51 54 54
15 15 15 17 20 21 21 22 23 25 26 27 28 37 39 41 47 48 50 54 54 59 50 51 46 44 53 48 46 50 51 55 58 55 54 53 53 52 54 56 55 60 59
19 20 20 18 19 21 25 25 26 24 28 29 28 30 31 38 48 51 44 45 49 56 56 51 55 46 49 55 56 62 59 60 61 63 66 56 60 62 63 61 64 67 69
24 24 24 24 24 24 26 28 28 30 31 28 30 29 29 30 33 36 40 41 41 45 53 53 58 59 60 57 63 66 66 64 66 61 65 68 71 73 71 69 67 75 74
25 27 28 27 27 27 28 30 30 28 28 30 29 28 26 26 27 29 30 28 28 31 36 40 43 47 51 53 55 59 63 65 66 65 65 65 68 67 69 72 71 69 64
Wind_Direction
254 249 249 244 243 246 247 251 247 253 243 236 236 236 238 232 236 242 241 251 259 268 269 266 264 262 257 247 241 238 244 247 236 236 234 235 226 231 226 233 235 237 237
258 255 245 241 235 239 239 243 245 238 239 235 233 231 227 225 233 226 238 250 256 263 264 263 260 255 249 244 242 243 242 241 238 240 236 239 230 235 225 229 234 238 239
265 259 246 236 233 232 228 234 233 234 236 236 229 225 222 222 220 220 239 247 251 259 259 262 253 249 251 249 249 249 245 242 238 239 243 241 233 240 225 232 235 237 238
267 266 243 232 231 232 232 228 229 228 232 228 223 220 221 223 230 224 231 237 251 258 261 260 251 251 250 253 252 250 250 243 241 243 241 243 231 240 235 234 231 234 236
269 260 250 231 231 233 229 227 224 224 222 222 219 217 216 221 231 223 231 241 249 257 263 255 252 250 248 249 251 256 249 241 240 245 240 244 232 246 233 240 226 230 233
267 254 248 227 227 229 222 232 219 219 218 221 210 214 218 221 226 225 234 239 250 258 257 252 252 248 246 251 262 266 252 245 243 243 237 243 240 241 218 229 228 225 234
265 257 244 229 233 234 225 227 222 218 218 205 205 211 215 221 222 225 228 237 251 257 252 251 250 244 249 264 263 272 273 254 245 240 233 233 248 234 237 228 237 227 236
271 267 248 224 224 215 229 220 218 214 211 205 209 210 219 218 220 226 231 240 250 251 249 248 240 242 254 263 265 265 274 258 243 234 227 217 235 235 234 239 236 235 240
261 258 251 225 215 221 227 215 215 222 218 220 213 214 218 218 222 227 228 240 249 246 245 244 239 246 258 272 282 275 265 252 238 232 224 221 233 233 241 231 242 243 240
246 222 222 217 215 219 220 217 219 222 221 228 217 214 215 215 218 221 227 237 247 243 240 243 246 253 260 270 281 287 260 245 228 227 223 227 233 236 236 238 242 244 245
253 215 217 223 222 225 211 221 225 232 223 220 218 216 211 212 213 220 226 236 243 240 238 242 247 249 257 269 283 287 246 224 217 224 216 228 242 231 238 241 240 243 242
248 244 232 230 231 228 229 236 232 236 232 232 215 216 212 211 212 218 225 236 244 239 239 241 248 252 260 270 281 279 241 230 213 218 223 224 226 230 235 237 240 241 246
266 254 254 252 253 241 231 232 230 239 247 240 221 223 214 212 215 218 224 233 246 242 238 241 246 253 257 264 284 288 256 227 222 222 222 226 219 228 233 239 240 245 243
266 245 244 259 261 246 234 241 228 250 237 257 213 228 213 211 213 218 222 229 244 243 238 246 247 249 256 253 265 282 275 234 220 219 217 220 228 229 238 237 241 245 238
270 264 247 252 263 256 246 235 235 244 242 232 243 209 215 208 207 212 218 221 235 241 237 246 244 243 246 250 243 251 277 242 226 226 230 222 229 230 235 238 243 250 251
257 258 257 252 259 262 252 237 233 240 245 221 217 212 195 203 208 213 217 223 234 241 237 240 241 244 241 242 241 242 239 250 234 235 219 218 222 227 231 235 237 241 247
295 269 271 250 253 259 253 242 236 233 235 237 221 218 210 210 219 217 218 225 232 239 244 247 243 240 245 246 245 240 241 239 235 235 237 244 229 238 236 235 232 243 244
269 262 270 277 243 254 258 253 245 242 238 242 240 228 207 214 224 219 226 229 229 235 242 250 250 250 247 248 249 247 248 247 241 240 244 248 247 245 244 246 247 253 256
255 250 264 275 275 254 257 257 254 250 246 243 242 234 242 240 225 232 234 240 239 236 239 247 254 254 257 255 251 250 249 247 249 252 255 254 251 253 252 252 251 253 256
255 258 258 267 272 276 274 277 271 251 250 249 244 232 235 244 242 240 241 245 250 246 245 245 247 255 256 257 257 255 253 254 257 259 257 262 263 256 253 254 255 256 258
273 282 273 265 271 276 278 276 278 263 246 250 245 239 240 240 254 241 247 245 253 247 249 250 257 263 257 252 255 256 256 254 256 256 257 260 264 264 261 261 262 261 260
269 269 270 265 256 264 267 272 270 267 260 250 248 247 247 247 247 254 251 253 250 251 265 251 255 263 256 252 255 256 257 257 257 256 259 262 261 258 258 262 262 261 260
260 267 264 268 265 260 264 266 266 264 261 251 249 246 250 251 250 257 254 247 252 258 263 248 259 253 255 245 264 266 257 259 257 258 257 258 260 262 261 260 262 259 259
285 280 285 284 278 277 268 263 260 260 260 261 256 252 255 252 250 253 254 251 254 256 253 268 263 256 258 257 261 266 258 255 255 258 254 257 263 266 263 263 267 259 251
279 279 279 284 281 282 277 274 267 261 262 262 261 260 257 260 260 259 257 259 259 256 257 259 260 258 262 257 260 251 244 249 246 253 257 254 254 258 257 257 257 252 254
279 274 273 268 269 272 276 277 270 264 261 259 255 254 252 253 254 256 256 256 257 257 255 256 255 254 253 254 255 256 257 255 253 256 258 259 258 258 256 255 253 253 261